STARLINK-36476, 67314

Orbit data source: Space-Track

STARLINK-36476, 67314 is a payload satellite owned by SpaceX/Seattle (US) in LEO that was launched on Sun, 04 Jan 2026 UTC via an FALCON 9 launch vehicle from the Air Force Eastern Test Range (AFETR). Payload-class satellites include a variety of spacecraft equipped with specific instruments for various scientific and technological missions. These include communications satellites like Starlink; space stations such as the ISS; scientific satellites like the Hubble; Earth observation satellites from companies like Planet Labs, Umbra, and HawkEye 360; GPS; miniature CubeSats for education and research; and military/defense satellites.

Loading next visibility...
Identifier
67314, 2026-002K
Orbit
LEO
Country
Flag of USUS
Related business
Manufacturer
SpaceX/Seattle
Mission
Operational Commercial Communications
Bus & Motor
STARLINK V2MO, Unknown motor
Mass
575 kg wet, ~530 kg dry
Launch date (UTC)
2026-01-04 (2 months ago)
Launch vehicle
FALCON 9
Launch site
Air Force Eastern Test Range (AFETR)
Object type
Payload
Rocket body
Debris
Shape & HBR
Box + 2 Pan, 17.7 m
Radar Cross Section
36.964 m²

Expand to show TLE details & history
Last TLE update: 1 day ago

TLE from 1 day ago
0 STARLINK-36476
1 67314U 26002K   26062.18554643  .00043703  00000-0  15869-2 0  9991
2 67314  42.9996   2.0423 0001404 261.4581  98.6112 15.27607572 10076
Epoch: 2026-03-03T04:27Z
TLE epoch observation values (Epoch: 2026-03-03T04:27:11.211Z)
Latitude
0.00001°
Longitude
134.27737°
Altitude
482.886 km
Speed
7.626 km/s
True Right ascension
00h 08m 10s
True Declination
0° 00' 00"
Sunlit
Object was in daylight at epoch
Visualization orbit readout
Latitude
Unknown
Longitude
Unknown
Altitude
Unknown
Speed
Unknown
Apparent Right ascension
Unknown
Apparent Declination
Unknown
Sunlit
N/A
Visualization observer readout
Local Sidereal Time
09:13:29
Azimuth
Unknown
Elevation
Unknown
Doppler factor
Unknown
Orbital elements
Apogee altitude
485.875 km
Perigee altitude
483.948 km
Semi-major axis
6,863.049 km
Eccentricity
0.00014
Inclination
42.9996°
RAAN
2.0423°
Arg. of periapsis
261.4581°
True anomaly
98.62711°
Mean anomaly
98.6112°
Eccentric anomaly
98.61915°
Mean motion
3.8174 °/min
Orbital period
94.31 mins
BSTAR
0.0015869
Loading maneuver chart data...
Computing Atmospheric mass density...
Loading historical data...
Loading historical data...
Loading historical data...
Loading historical data...
Loading historical data...
Loading historical data...
Loading historical data...

Documentation

Showing up to 5 results
|